SCP
0 0 0 0 0 0 0 0 0 1 1 1 1 1 1 1 1 1 1 0 0 0 1 1 1 2 1 1 1 1 1 1 1 1 1 1 1 0 0 1 1 1 1
0 0 0 0 0 0 0 0 0 0 1 1 1 1 1 1 1 1 1 1 0 0 0 1 1 1 2 1 1 1 1 1 1 1 1 1 1 0 0 1 1 1 1
0 0 0 0 0 0 0 0 0 0 0 1 1 1 1 1 1 1 1 1 1 1 1 1 1 1 2 2 2 1 1 1 1 1 1 1 1 1 0 1 1 1 1
0 0 0 0 0 0 0 0 0 0 0 0 1 1 1 1 1 1 1 1 1 1 1 1 1 1 2 2 2 2 2 2 1 1 1 1 1 1 1 1 1 1 1
0 0 0 0 0 0 0 0 0 0 0 0 0 0 0 0 0 0 0 0 1 1 1 1 1 1 1 2 2 2 2 2 2 1 1 1 1 1 1 1 1 1 0
0 0 0 0 0 0 0 0 0 0 0 0 0 0 0 0 0 0 0 0 1 1 1 1 1 1 1 2 2 3 2 2 2 2 2 2 2 1 1 1 1 1 1
0 0 0 0 0 0 0 0 0 0 0 0 0 0 0 0 0 0 0 0 1 1 1 1 1 1 1 2 2 3 3 2 2 2 2 2 2 2 2 1 1 1 1
0 0 0 0 0 0 0 0 0 0 0 0 0 0 0 0 0 0 0 0 1 1 1 1 1 1 2 2 2 3 3 3 3 3 2 2 2 2 2 2 1 1 1
0 0 0 0 0 0 0 0 0 0 0 0 0 0 0 0 0 0 0 0 0 1 1 1 1 1 2 2 2 2 2 3 3 3 3 3 3 2 2 2 2 1 1
0 0 0 0 0 0 0 0 0 0 0 0 0 0 0 0 0 0 0 0 0 0 1 1 1 1 2 2 2 2 2 2 3 3 3 3 3 2 2 2 2 2 2
0 0 0 0 0 0 0 0 0 0 0 0 0 0 0 0 0 0 0 0 0 0 0 1 1 1 2 2 2 2 1 2 2 3 3 3 3 3 2 2 2 2 2
0 0 0 0 0 0 0 0 0 0 0 0 0 0 0 0 0 0 0 0 0 0 0 1 1 1 1 2 2 1 1 1 2 2 3 3 3 3 3 3 3 2 2
0 0 0 0 0 0 0 0 0 0 0 0 0 0 0 0 0 0 0 0 0 0 0 0 1 1 1 1 1 1 0 0 1 2 2 2 3 3 3 3 3 3 3
0 0 0 0 0 0 0 0 0 0 0 0 0 0 0 0 0 0 0 0 0 0 0 0 0 1 1 1 1 1 1 0 0 1 1 1 2 2 2 3 3 2 2
0 0 0 0 0 0 0 0 0 0 0 0 0 0 0 0 0 0 0 0 0 0 0 0 0 1 1 1 1 1 1 1 0 0 1 1 1 1 2 2 2 2 1
0 0 0 0 0 0 0 0 0 0 0 0 0 0 0 0 0 0 0 0 0 0 0 0 0 0 1 1 1 1 1 1 0 0 0 0 1 1 1 1 1 0 0
0 0 0 0 0 0 0 0 0 0 0 0 0 0 0 0 0 0 0 0 0 0 0 0 0 0 1 1 1 2 2 1 1 0 0 0 0 0 0 0 0 0 0
0 0 0 0 0 0 0 0 0 0 0 0 0 0 0 0 0 0 0 0 0 0 0 0 0 0 1 1 1 2 1 1 1 0 0 0 0 0 0 0 0 0 0
0 0 0 0 0 0 0 0 0 0 0 0 0 0 0 0 0 0 0 0 0 0 0 0 0 1 1 1 1 2 1 1 1 0 0 0 0 0 0 0 0 0 0
0 0 0 0 0 0 0 0 0 0 0 0 0 0 0 0 0 0 0 0 0 0 0 0 0 1 1 1 1 1 1 1 1 1 0 0 0 0 0 0 0 0 0
0 0 0 0 0 0 0 0 0 0 0 0 0 0 0 0 0 0 0 0 0 0 0 0 0 1 1 1 1 1 1 1 1 1 0 0 0 0 0 0 0 0 0
0 0 0 0 0 0 0 0 0 0 0 0 0 0 0 0 0 0 0 0 0 0 0 0 0 0 0 1 1 1 1 1 1 0 0 0 0 0 0 0 0 0 0
0 0 0 0 0 0 0 0 0 0 0 0 0 0 0 0 0 0 0 0 0 0 0 0 0 0 0 0 1 1 1 1 0 0 0 0 0 0 0 0 0 0 0
0 0 0 0 0 0 0 0 0 0 0 0 0 0 0 0 0 0 0 0 0 0 0 0 0 0 0 0 0 0 0 0 0 0 0 0 0 0 0 0 0 0 0
0 0 0 0 0 0 0 0 0 0 0 0 0 0 0 0 0 0 0 0 0 0 0 0 0 0 0 0 0 0 0 0 0 0 0 0 0 0 0 0 0 0 0
0 0 0 0 0 0 0 0 0 0 0 0 0 0 0 0 0 0 0 0 0 0 0 0 0 0 0 0 0 0 0 0 0 0 0 0 0 0 0 0 0 0 0
Wind_Speed
12 12 10 10 12 11 11 11 10 11 11 10 10 11 11 11 10 9 5 8 11 12 13 15 15 15 16 19 20 18 17 16 15 14 13 12 11 9 9 9 9 9 9
13 12 12 11 11 12 12 12 13 11 10 9 10 11 12 12 11 11 9 8 12 13 14 15 16 17 17 18 20 20 19 18 17 16 14 13 12 11 11 10 10 10 9
15 14 12 11 11 12 14 12 14 11 10 10 11 12 11 12 12 12 11 9 8 12 15 16 16 17 18 18 19 20 20 19 18 16 15 14 13 13 13 12 11 11 10
16 14 12 11 12 12 11 11 11 11 11 10 10 9 9 10 13 13 11 10 9 8 11 15 17 17 18 19 20 21 21 20 19 18 17 16 15 15 14 13 12 12 11
16 14 11 11 14 11 10 11 11 11 12 12 11 11 10 10 11 12 13 12 11 10 10 10 15 16 17 19 20 21 21 21 20 20 18 17 17 16 15 14 14 13 12
16 14 11 14 14 11 11 11 13 12 12 12 13 13 12 12 11 11 12 12 11 12 12 11 10 12 17 18 18 20 21 21 21 20 19 19 19 18 16 16 15 14 13
16 14 11 13 13 12 14 14 13 14 12 11 12 12 13 15 14 12 11 11 12 12 11 12 10 9 9 16 17 18 21 22 21 21 20 20 20 19 18 17 16 15 14
17 13 14 12 13 13 15 14 14 11 11 9 8 10 10 12 13 12 12 12 12 11 11 12 12 11 10 9 11 16 18 22 21 21 20 21 21 21 20 19 17 16 15
18 16 15 14 14 13 12 15 14 14 11 11 9 8 8 9 8 10 12 12 13 12 11 11 13 13 13 10 10 14 16 19 22 22 21 21 22 23 22 20 19 18 16
17 17 16 16 15 13 14 14 14 12 13 11 10 10 11 11 10 9 8 9 11 12 12 10 12 13 13 11 10 10 14 17 22 23 22 21 23 25 25 23 21 19 16
16 17 17 16 15 13 15 16 15 14 11 11 11 10 12 11 13 11 12 10 8 9 9 11 10 11 12 12 11 12 13 15 20 21 20 21 23 25 26 25 23 20 18
14 17 17 16 16 14 15 16 15 16 13 13 12 11 11 10 9 10 12 13 12 9 9 8 9 9 9 10 12 11 13 15 17 18 18 19 20 22 25 25 23 21 20
14 17 17 16 16 16 17 16 15 15 15 15 13 12 12 12 12 12 12 12 13 11 9 9 8 8 8 9 10 12 13 15 16 16 16 16 17 19 22 23 22 22 22
15 18 18 18 18 18 17 15 13 15 13 14 14 15 12 12 12 12 12 11 11 11 11 12 8 9 8 8 9 12 12 16 16 17 16 16 17 18 20 21 20 21 20
16 19 18 18 17 17 17 16 12 14 14 14 14 14 13 12 12 12 12 11 11 11 12 13 9 9 8 7 8 10 11 12 14 15 17 18 17 17 17 19 19 18 19
19 19 19 18 18 17 16 15 14 14 15 14 11 11 11 10 10 10 11 11 11 11 11 8 7 7 9 6 9 9 8 11 11 12 13 15 17 19 21 22 21 21 20
19 19 19 18 18 17 16 14 15 15 15 14 13 11 9 8 7 8 9 10 10 9 11 8 5 5 9 9 8 7 8 8 9 14 16 18 19 20 21 21 21 21 20
18 18 18 18 18 18 17 16 15 15 15 15 14 13 12 10 10 7 7 10 10 10 10 11 7 7 9 10 10 9 8 7 8 14 18 18 18 19 19 19 18 17 17
18 18 18 18 18 18 18 16 14 14 14 14 14 14 13 13 12 8 8 8 8 8 9 9 8 7 5 7 10 10 10 8 8 11 16 18 19 19 19 20 19 17 16
18 18 18 18 18 18 17 16 11 12 13 13 13 13 13 13 13 11 6 6 6 7 8 8 7 7 6 8 10 11 10 8 9 9 10 11 15 16 17 19 19 18 17
17 17 18 18 18 16 16 19 9 10 11 12 12 12 12 17 20 15 9 6 3 2 3 5 7 7 7 9 10 9 11 10 8 8 10 10 11 10 10 14 15 15 16
17 17 17 18 18 15 26 29 16 10 10 11 12 12 13 15 19 21 24 22 18 9 5 2 3 6 6 6 6 9 11 12 7 5 9 8 9 9 9 9 13 15 16
17 17 17 17 17 19 28 29 23 12 10 10 12 11 10 13 15 13 18 22 24 28 22 10 10 7 6 6 3 8 9 10 7 4 8 7 6 7 6 8 16 16 17
14 14 16 17 17 18 26 28 24 10 9 10 11 12 12 13 14 14 13 14 16 19 20 15 13 13 12 10 8 5 8 10 8 6 4 6 5 7 8 9 15 17 18
14 14 15 16 17 18 24 28 20 7 7 9 10 11 13 14 20 19 14 13 14 14 19 25 26 25 28 28 17 6 4 7 6 4 5 4 5 5 6 8 10 16 17
14 14 14 15 15 16 22 26 19 6 7 7 8 10 17 19 22 21 14 13 14 13 13 15 18 20 20 22 25 14 8 4 5 4 4 3 5 5 5 4 5 6 9
Wind_Direction
344 341 335 336 334 335 330 324 315 308 297 283 271 263 260 257 255 249 235 204 230 244 246 247 246 245 239 227 219 212 211 209 209 206 199 195 191 188 184 180 176 174 175
341 336 331 331 332 333 328 319 313 307 295 287 278 269 262 258 255 254 252 225 218 237 245 243 243 242 239 232 221 214 212 210 209 208 203 199 195 191 187 183 179 178 178
341 335 329 327 333 329 323 320 316 310 299 290 280 276 271 264 259 254 250 249 238 224 231 239 239 241 239 234 224 216 214 210 208 206 203 198 195 193 191 188 184 182 183
344 335 329 330 333 326 322 321 318 316 307 294 282 275 271 267 264 258 252 243 243 242 227 224 231 235 238 235 227 219 217 213 206 204 203 200 195 195 195 193 191 189 189
341 336 329 332 332 327 325 323 322 317 309 300 286 273 264 262 262 259 252 245 239 236 242 219 215 229 235 237 231 224 221 217 210 205 204 201 198 198 199 198 196 195 195
337 334 330 332 332 327 328 326 321 318 308 299 291 277 265 258 256 257 256 247 237 233 234 239 226 220 224 234 234 226 221 219 214 210 205 202 200 199 200 199 198 197 197
333 331 330 330 330 327 324 322 325 319 315 313 299 281 262 251 248 248 248 248 239 232 230 232 235 235 218 217 227 224 219 218 218 215 211 206 201 199 199 199 197 196 197
330 329 329 328 327 323 320 322 322 315 310 314 311 299 273 254 239 237 240 240 241 235 231 231 232 232 234 224 210 212 215 216 217 216 215 212 207 202 199 197 195 194 195
326 325 325 325 323 321 317 316 313 309 307 304 288 288 285 270 267 239 233 236 235 233 231 232 233 233 232 228 220 203 208 214 217 217 216 214 211 207 201 195 192 192 192
325 322 323 324 321 318 313 310 307 301 296 292 292 272 276 294 286 269 239 229 237 239 234 231 233 232 231 226 221 214 199 211 218 219 218 215 213 210 202 194 190 189 189
325 324 324 323 320 316 310 305 301 293 285 280 278 280 284 280 269 267 263 252 233 233 234 230 228 231 229 226 221 214 199 210 219 219 217 214 213 211 204 196 191 187 184
325 326 325 322 317 313 310 306 299 291 282 274 270 267 266 266 267 260 255 254 253 241 227 225 224 226 227 226 224 208 200 209 220 223 219 213 212 210 205 196 190 185 179
326 326 325 319 316 314 310 308 305 296 286 276 269 264 261 259 264 267 265 259 257 253 233 224 222 219 221 224 222 199 206 211 218 222 220 212 209 208 203 194 186 180 173
323 322 321 318 316 315 313 313 312 306 297 288 273 264 260 257 256 256 257 258 255 250 240 234 216 212 212 218 222 198 213 211 216 219 218 213 207 204 197 186 179 175 164
322 324 321 320 318 318 316 316 318 317 311 299 281 266 257 254 252 253 251 248 250 247 241 237 222 209 205 210 204 210 219 200 204 209 211 208 201 189 175 163 160 153 140
326 326 326 323 322 323 321 318 322 325 320 312 298 279 266 258 254 251 248 244 241 246 251 241 229 212 195 197 196 206 194 156 161 164 166 165 159 151 145 141 140 139 140
329 330 329 326 327 328 326 321 328 332 332 328 327 322 317 302 282 264 253 245 237 234 242 243 230 212 197 188 182 184 157 147 137 131 129 126 126 127 129 132 136 140 142
333 332 331 330 332 332 329 323 333 340 340 340 340 344 346 336 319 297 274 253 241 231 232 229 206 201 199 185 174 164 147 135 132 131 126 123 122 123 125 127 131 136 137
336 335 333 333 334 331 330 324 334 345 344 344 345 348 347 345 338 319 297 269 248 234 226 222 201 188 182 171 163 151 139 130 128 131 129 132 133 136 139 139 139 138 136
338 337 336 334 333 331 330 327 337 347 347 347 349 350 349 350 344 333 316 299 267 234 219 211 193 177 166 165 162 149 140 136 137 140 134 134 136 138 144 146 144 143 140
338 338 337 336 336 334 332 336 343 349 347 348 351 353 353 360 359 4 7 355 325 276 222 194 181 167 162 166 167 158 143 134 130 143 143 145 144 143 140 139 139 141 138
336 338 336 336 337 336 334 343 352 346 348 351 352 355 359 4 6 11 22 32 35 31 13 24 124 130 126 134 144 149 142 144 136 137 132 130 145 145 150 153 146 142 138
334 335 333 335 335 335 337 341 348 346 351 355 357 1 8 9 16 11 20 28 32 37 39 43 52 47 54 35 94 150 160 149 117 114 127 105 105 110 106 113 131 134 132
330 330 331 334 334 335 338 340 343 344 355 360 4 8 18 22 25 26 27 33 34 35 37 42 48 47 47 38 30 53 99 96 84 42 61 108 90 77 71 81 102 115 119
327 328 330 334 335 337 339 339 346 348 2 6 10 19 30 34 34 35 32 35 36 32 34 43 46 45 45 45 39 45 92 124 105 56 27 92 107 86 61 50 70 96 106
329 329 330 334 338 340 342 347 0 358 8 8 13 28 42 44 39 40 37 36 37 32 33 35 38 38 40 40 40 36 28 74 96 87 30 79 114 114 93 52 39 57 85